Location: Brest
(52.1000°N, 23.7000°E)
Time: 17:49:08
(UTC+03:00)

Envisat - Visible Passes

Search period start: 23 May 2017 00:00
Search period end: 02 June 2017 00:00
Orbit: 764 x 766 km, 98.2° (Epoch: 22 May)

Date Brightness Start Highest point End Pass type
(mag) Time Alt. Az. Time Alt. Az. Time Alt. Az.
23 May 5.5 22:55:27 10° WSW 22:58:18 15° W 23:01:11 10° NW visible
24 May 4.8 22:16:46 10° SSW 22:21:09 29° W 22:25:33 10° NNW visible
26 May 5.4 22:43:37 10° SW 22:47:05 18° W 22:50:33 10° NW visible
28 May 5.8 23:11:42 10° W 23:13:06 11° W 23:14:31 10° WNW visible
29 May 5.2 22:31:57 10° SW 22:35:52 22° W 22:39:48 10° NW visible
31 May 5.6 22:59:18 10° WSW 23:01:51 14° W 23:04:25 10° NW visible
01 Jun 5.0 22:20:25 10° SSW 22:24:40 27° W 22:28:57 10° NW visible
